LC10 LIRF-LIMJ

Flight info

Callsign LC10
Flight time 0h 46m
Altitude 260
Route OST1E ASVOL SPEZI UNITA IXIT2P
Aircraft B733/M-V/N

Departure

Time 2026-05-05 06:30
Airport Rome–Fiumicino Leonardo da Vinci International Airport (LIRF)

Arrival

Time 2026-05-05 07:17
Airport Genoa Cristoforo Colombo Airport (LIMJ)
Time Latitude Longitude Altitude Speed Heading
2026-05-05 06:19 41.79637 12.24038 8 ft 0 kts 128°
2026-05-05 06:22 41.79639 12.24036 8 ft 1 kts 128°
2026-05-05 06:22 41.79648 12.24021 7 ft 2 kts 128°
2026-05-05 06:23 41.79657 12.24005 7 ft 2 kts 134°
2026-05-05 06:23 41.79670 12.23993 7 ft 2 kts 153°
2026-05-05 06:23 41.79683 12.23986 7 ft 2 kts 170°
2026-05-05 06:23 41.79698 12.23985 7 ft 2 kts 187°
2026-05-05 06:24 41.79713 12.23991 7 ft 2 kts 204°
2026-05-05 06:24 41.79726 12.24001 7 ft 2 kts 221°
2026-05-05 06:24 41.79736 12.24016 7 ft 2 kts 238°
2026-05-05 06:24 41.79740 12.24027 7 ft 0 kts 248°
2026-05-05 06:25 41.79742 12.24035 7 ft 0 kts 250°
2026-05-05 06:26 41.79740 12.24028 7 ft 2 kts 250°
2026-05-05 06:27 41.79731 12.23990 7 ft 6 kts 250°
2026-05-05 06:27 41.79686 12.23836 7 ft 10 kts 249°
2026-05-05 06:27 41.79702 12.23744 7 ft 12 kts 328°
2026-05-05 06:28 41.79792 12.23702 7 ft 14 kts 342°
2026-05-05 06:28 41.79891 12.23661 7 ft 15 kts 343°
2026-05-05 06:28 41.79925 12.23647 7 ft 0 kts 343°
2026-05-05 06:29 41.79927 12.23647 7 ft 1 kts 343°
2026-05-05 06:29 41.79954 12.23635 7 ft 7 kts 343°
2026-05-05 06:29 41.80028 12.23632 7 ft 12 kts 29°
2026-05-05 06:29 41.80083 12.23761 7 ft 32 kts 67°
2026-05-05 06:30 41.80249 12.24363 7 ft 103 kts 70°
2026-05-05 06:30 41.80569 12.25531 18 ft 159 kts 70°
2026-05-05 06:30 41.80957 12.27083 272 ft 187 kts 73°
2026-05-05 06:30 41.81317 12.28773 996 ft 189 kts 75°
2026-05-05 06:31 41.81717 12.30449 1522 ft 192 kts 68°
2026-05-05 06:31 41.82244 12.32161 1845 ft 206 kts 68°
2026-05-05 06:31 41.82792 12.33990 2119 ft 215 kts 68°
2026-05-05 06:31 41.83635 12.35633 2471 ft 219 kts 33°
2026-05-05 06:32 41.85107 12.36148 2854 ft 225 kts 352°
2026-05-05 06:32 41.86498 12.35195 3225 ft 232 kts 311°
2026-05-05 06:32 41.87106 12.33211 3589 ft 237 kts 271°
2026-05-05 06:32 41.86632 12.31129 3954 ft 241 kts 231°
2026-05-05 06:33 41.85412 12.29617 4348 ft 242 kts 219°
2026-05-05 06:33 41.84172 12.28204 5297 ft 227 kts 221°
2026-05-05 06:33 41.82982 12.26808 5855 ft 236 kts 222°
2026-05-05 06:33 41.81757 12.25187 6040 ft 258 kts 239°
2026-05-05 06:34 41.81249 12.22887 6478 ft 263 kts 275°
2026-05-05 06:34 41.81836 12.20616 7076 ft 261 kts 311°
2026-05-05 06:34 41.83208 12.19119 7694 ft 258 kts 327°
2026-05-05 06:34 41.84666 12.17679 8248 ft 261 kts 323°
2026-05-05 06:35 41.86086 12.16144 8742 ft 266 kts 321°
2026-05-05 06:35 41.87512 12.14517 9156 ft 273 kts 320°
2026-05-05 06:35 41.88941 12.12825 9662 ft 277 kts 319°
2026-05-05 06:35 41.90369 12.11096 10192 ft 279 kts 319°
2026-05-05 06:36 41.91827 12.09305 10322 ft 296 kts 318°
2026-05-05 06:36 41.93393 12.07363 10371 ft 316 kts 318°
2026-05-05 06:36 41.95032 12.05316 10656 ft 327 kts 317°
2026-05-05 06:36 41.96718 12.03201 11161 ft 330 kts 317°
2026-05-05 06:37 41.98386 12.01103 11701 ft 332 kts 317°
2026-05-05 06:37 42.00073 11.98977 12227 ft 334 kts 317°
2026-05-05 06:37 42.01767 11.96838 12755 ft 336 kts 317°
2026-05-05 06:37 42.03466 11.94693 13275 ft 337 kts 317°
2026-05-05 06:38 42.05171 11.92536 13778 ft 339 kts 317°
2026-05-05 06:38 42.06884 11.90368 14268 ft 340 kts 317°
2026-05-05 06:38 42.08602 11.88191 14747 ft 342 kts 317°
2026-05-05 06:38 42.10330 11.86002 15212 ft 343 kts 317°
2026-05-05 06:39 42.12074 11.83801 15637 ft 346 kts 317°
2026-05-05 06:39 42.13824 11.81588 16122 ft 346 kts 317°
2026-05-05 06:39 42.15574 11.79369 16584 ft 347 kts 317°
2026-05-05 06:39 42.17304 11.77172 17017 ft 349 kts 317°
2026-05-05 06:40 42.19067 11.74929 17443 ft 350 kts 317°
2026-05-05 06:40 42.20836 11.72677 17861 ft 352 kts 317°
2026-05-05 06:40 42.22614 11.70410 18270 ft 353 kts 317°
2026-05-05 06:40 42.24398 11.68134 18675 ft 355 kts 317°
2026-05-05 06:41 42.26187 11.65849 19071 ft 356 kts 317°
2026-05-05 06:41 42.27983 11.63554 19460 ft 358 kts 317°
2026-05-05 06:41 42.29786 11.61248 19841 ft 359 kts 317°
2026-05-05 06:41 42.31595 11.58932 20217 ft 360 kts 317°
2026-05-05 06:42 42.33413 11.56603 20581 ft 362 kts 317°
2026-05-05 06:42 42.35236 11.54266 20937 ft 363 kts 317°
2026-05-05 06:42 42.37067 11.51916 21287 ft 364 kts 317°
2026-05-05 06:42 42.38904 11.49556 21634 ft 366 kts 317°
2026-05-05 06:43 42.40745 11.47190 21967 ft 367 kts 317°
2026-05-05 06:43 42.42593 11.44812 22287 ft 369 kts 317°
2026-05-05 06:43 42.44452 11.42419 22605 ft 370 kts 318°
2026-05-05 06:43 42.46283 11.40058 22915 ft 371 kts 318°
2026-05-05 06:44 42.48150 11.37649 23225 ft 373 kts 318°
2026-05-05 06:44 42.50025 11.35229 23527 ft 374 kts 318°
2026-05-05 06:44 42.51906 11.32791 23788 ft 376 kts 317°
2026-05-05 06:44 42.53795 11.30339 24105 ft 377 kts 317°
2026-05-05 06:45 42.55690 11.27882 24413 ft 378 kts 317°
2026-05-05 06:45 42.57589 11.25419 24710 ft 379 kts 317°
2026-05-05 06:45 42.59492 11.22950 24995 ft 380 kts 317°
2026-05-05 06:45 42.61400 11.20473 25272 ft 381 kts 317°
2026-05-05 06:46 42.62676 11.18816 25449 ft 382 kts 317°
2026-05-05 06:46 42.65237 11.15485 25802 ft 384 kts 317°
2026-05-05 06:46 42.67139 11.13011 25976 ft 386 kts 317°
2026-05-05 06:46 42.69074 11.10490 26018 ft 387 kts 317°
2026-05-05 06:47 42.71009 11.07967 26008 ft 386 kts 317°
2026-05-05 06:47 42.72939 11.05449 26000 ft 385 kts 317°
2026-05-05 06:47 42.74863 11.02936 25993 ft 384 kts 317°
2026-05-05 06:47 42.76788 11.00419 25989 ft 385 kts 317°
2026-05-05 06:48 42.78717 10.97894 25990 ft 386 kts 317°
2026-05-05 06:48 42.80650 10.95363 25993 ft 387 kts 317°
2026-05-05 06:48 42.82587 10.92824 25995 ft 388 kts 317°
2026-05-05 06:48 42.84528 10.90277 25995 ft 389 kts 317°
2026-05-05 06:49 42.86471 10.87726 25994 ft 390 kts 316°
2026-05-05 06:49 42.88418 10.85166 25994 ft 390 kts 316°
2026-05-05 06:49 42.90370 10.82597 25994 ft 391 kts 316°
2026-05-05 06:49 42.92324 10.80024 25994 ft 392 kts 316°
2026-05-05 06:50 42.94250 10.77485 25996 ft 392 kts 316°
2026-05-05 06:50 42.96204 10.74907 25997 ft 392 kts 316°
2026-05-05 06:50 42.98157 10.72328 25996 ft 392 kts 316°
2026-05-05 06:50 43.00110 10.69746 25994 ft 391 kts 316°
2026-05-05 06:51 43.02066 10.67158 25994 ft 391 kts 316°
2026-05-05 06:51 43.04016 10.64575 25992 ft 391 kts 316°
2026-05-05 06:51 43.05964 10.61994 25994 ft 391 kts 316°
2026-05-05 06:51 43.07909 10.59413 25994 ft 391 kts 316°
2026-05-05 06:52 43.09869 10.56810 25994 ft 391 kts 316°
2026-05-05 06:52 43.11822 10.54224 25971 ft 391 kts 316°
2026-05-05 06:52 43.13768 10.51646 25994 ft 391 kts 316°
2026-05-05 06:52 43.15722 10.49051 25995 ft 391 kts 316°
2026-05-05 06:53 43.17671 10.46454 25995 ft 391 kts 315°
2026-05-05 06:53 43.19550 10.43764 26001 ft 391 kts 313°
2026-05-05 06:53 43.21422 10.41032 25997 ft 390 kts 314°
2026-05-05 06:53 43.23283 10.38342 25994 ft 390 kts 314°
2026-05-05 06:54 43.25168 10.35633 25994 ft 390 kts 314°
2026-05-05 06:54 43.27023 10.32966 25975 ft 391 kts 313°
2026-05-05 06:54 43.28919 10.30236 25994 ft 390 kts 313°
2026-05-05 06:54 43.30765 10.27582 25993 ft 390 kts 313°
2026-05-05 06:55 43.32657 10.24863 25994 ft 390 kts 313°
2026-05-05 06:55 43.34527 10.22174 25995 ft 390 kts 313°
2026-05-05 06:55 43.36392 10.19491 25996 ft 390 kts 313°
2026-05-05 06:55 43.38260 10.16802 25995 ft 390 kts 313°
2026-05-05 06:56 43.40129 10.14108 25992 ft 390 kts 313°
2026-05-05 06:56 43.41998 10.11413 25994 ft 390 kts 313°
2026-05-05 06:56 43.43854 10.08732 25994 ft 390 kts 313°
2026-05-05 06:56 43.45732 10.06018 25994 ft 390 kts 313°
2026-05-05 06:57 43.47598 10.03319 25994 ft 390 kts 313°
2026-05-05 06:57 43.49464 10.00618 25995 ft 390 kts 313°
2026-05-05 06:57 43.51327 9.97918 25994 ft 390 kts 313°
2026-05-05 06:57 43.53191 9.95213 25993 ft 390 kts 313°
2026-05-05 06:58 43.55054 9.92507 25993 ft 390 kts 313°
2026-05-05 06:58 43.56917 9.89800 25990 ft 390 kts 313°
2026-05-05 06:58 43.58777 9.87093 25987 ft 390 kts 313°
2026-05-05 06:58 43.60639 9.84382 25983 ft 390 kts 313°
2026-05-05 06:59 43.62499 9.81671 25980 ft 390 kts 313°
2026-05-05 06:59 43.64357 9.78960 25975 ft 390 kts 313°
2026-05-05 06:59 43.66213 9.76248 25970 ft 390 kts 313°
2026-05-05 06:59 43.68071 9.73533 25968 ft 390 kts 313°
2026-05-05 07:00 43.69897 9.70860 25967 ft 390 kts 313°
2026-05-05 07:00 43.71759 9.68132 25966 ft 390 kts 313°
2026-05-05 07:00 43.73637 9.65380 25966 ft 390 kts 313°
2026-05-05 07:00 43.75499 9.62647 25516 ft 395 kts 313°
2026-05-05 07:01 43.77375 9.59903 24898 ft 394 kts 315°
2026-05-05 07:01 43.79610 9.57797 24261 ft 393 kts 337°
2026-05-05 07:01 43.82130 9.56322 23644 ft 393 kts 332°
2026-05-05 07:01 43.84534 9.54503 23028 ft 395 kts 329°
2026-05-05 07:02 43.86888 9.52620 22414 ft 396 kts 329°
2026-05-05 07:02 43.89259 9.50692 21739 ft 392 kts 328°
2026-05-05 07:02 43.91605 9.48771 20989 ft 391 kts 328°
2026-05-05 07:02 43.93930 9.46860 20244 ft 390 kts 328°
2026-05-05 07:03 43.95477 9.45587 19746 ft 390 kts 328°
2026-05-05 07:03 43.98514 9.43008 18751 ft 388 kts 322°
2026-05-05 07:03 44.00487 9.40439 17999 ft 386 kts 315°
2026-05-05 07:03 44.02367 9.37785 17249 ft 385 kts 315°
2026-05-05 07:04 44.04227 9.35180 16508 ft 384 kts 315°
2026-05-05 07:04 44.06126 9.32526 15719 ft 380 kts 314°
2026-05-05 07:04 44.07966 9.29959 14968 ft 373 kts 314°
2026-05-05 07:04 44.09779 9.27433 14214 ft 367 kts 314°
2026-05-05 07:05 44.11563 9.24959 13370 ft 364 kts 315°
2026-05-05 07:05 44.13329 9.22512 12554 ft 361 kts 315°
2026-05-05 07:05 44.15085 9.20071 11733 ft 358 kts 315°
2026-05-05 07:05 44.16998 9.17896 10889 ft 355 kts 332°
2026-05-05 07:06 44.19342 9.17034 10070 ft 352 kts 358°
2026-05-05 07:06 44.21736 9.17726 9244 ft 352 kts 22°
2026-05-05 07:06 44.23967 9.19094 8545 ft 344 kts 20°
2026-05-05 07:06 44.26143 9.20213 8170 ft 329 kts 17°
2026-05-05 07:07 44.28263 9.21179 7766 ft 316 kts 16°
2026-05-05 07:07 44.30318 9.22097 7356 ft 306 kts 21°
2026-05-05 07:07 44.32047 9.23740 6947 ft 298 kts 46°
2026-05-05 07:07 44.33081 9.26166 6548 ft 292 kts 69°
2026-05-05 07:08 44.33644 9.28874 6201 ft 282 kts 73°
2026-05-05 07:08 44.33740 9.31522 5953 ft 273 kts 99°
2026-05-05 07:08 44.32978 9.33876 5710 ft 264 kts 128°
2026-05-05 07:08 44.31534 9.35395 5466 ft 256 kts 159°
2026-05-05 07:09 44.29834 9.35696 5235 ft 247 kts 189°
2026-05-05 07:09 44.28308 9.34766 5017 ft 234 kts 223°
2026-05-05 07:09 44.27436 9.32941 4766 ft 219 kts 258°
2026-05-05 07:09 44.27463 9.30899 4525 ft 212 kts 294°
2026-05-05 07:10 44.28287 9.29209 4319 ft 210 kts 315°
2026-05-05 07:10 44.29290 9.27732 4110 ft 207 kts 316°
2026-05-05 07:10 44.30265 9.26327 3995 ft 204 kts 316°
2026-05-05 07:10 44.31285 9.24867 3958 ft 212 kts 316°
2026-05-05 07:11 44.32272 9.23322 3894 ft 215 kts 303°
2026-05-05 07:11 44.32934 9.21420 3844 ft 220 kts 294°
2026-05-05 07:11 44.33470 9.19385 3782 ft 223 kts 291°
2026-05-05 07:11 44.33943 9.17339 3728 ft 220 kts 289°
2026-05-05 07:12 44.34383 9.15290 3658 ft 222 kts 289°
2026-05-05 07:12 44.34816 9.13233 3599 ft 218 kts 289°
2026-05-05 07:12 44.35250 9.11195 3537 ft 220 kts 289°
2026-05-05 07:12 44.35681 9.09207 3436 ft 206 kts 289°
2026-05-05 07:13 44.36082 9.07373 3329 ft 185 kts 290°
2026-05-05 07:13 44.36440 9.05750 3261 ft 171 kts 290°
2026-05-05 07:13 44.36792 9.04179 2986 ft 167 kts 290°
2026-05-05 07:13 44.37132 9.02667 2654 ft 160 kts 291°
2026-05-05 07:14 44.37478 9.01136 2390 ft 169 kts 291°
2026-05-05 07:14 44.37836 8.99547 2187 ft 172 kts 290°
2026-05-05 07:14 44.38191 8.97961 1946 ft 170 kts 290°
2026-05-05 07:14 44.38550 8.96339 1689 ft 177 kts 290°
2026-05-05 07:15 44.38910 8.94711 1435 ft 174 kts 290°
2026-05-05 07:15 44.39265 8.93105 1176 ft 172 kts 290°
2026-05-05 07:15 44.39623 8.91496 937 ft 171 kts 290°
2026-05-05 07:15 44.39956 8.89995 716 ft 149 kts 291°
2026-05-05 07:16 44.40264 8.88596 494 ft 152 kts 290°
2026-05-05 07:16 44.40565 8.87225 282 ft 146 kts 290°
2026-05-05 07:16 44.40863 8.85850 38 ft 148 kts 290°
2026-05-05 07:16 44.41119 8.84580 10 ft 107 kts 285°
2026-05-05 07:17 44.41262 8.83858 7 ft 41 kts 296°
2026-05-05 07:17 44.41372 8.83737 7 ft 16 kts
2026-05-05 07:17 44.41413 8.83866 7 ft 17 kts 109°
2026-05-05 07:17 44.41381 8.84037 7 ft 18 kts 104°
2026-05-05 07:18 44.41343 8.84215 7 ft 19 kts 108°
2026-05-05 07:18 44.41316 8.84399 8 ft 18 kts 66°
2026-05-05 07:18 44.41391 8.84539 11 ft 17 kts 53°
2026-05-05 07:18 44.41447 8.84550 11 ft 11 kts 316°
2026-05-05 07:19 44.41471 8.84523 11 ft 0 kts 322°